Wilmington, DE

8:12 AM EST on November 21, 2019 (GMT -0500)
New Castle County

Weather History for KILG - August, 2019

Change the Weather History Date:

Saturday, August 31, 2019

  Actual Average Record
Temperature  
Mean Temperature 77 °F 73 °F  
Max Temperature 88 °F 82 °F 101 °F (1953)
Min Temperature 66 °F 64 °F 47 °F (1934)
Degree Days  
Heating Degree Days 0 0  
Month to date heating degree days 0 0  
Since 1 June heating degree days 5 17  
Since 1 July heating degree days 0 2  
Cooling Degree Days 12 8  
Month to date cooling degree days 368 316  
Year to date cooling degree days 1230 993  
Since 1 June cooling degree days 1098 914  
Growing Degree Days 26 (Base 50)    
Moisture  
Dew Point 62 °F    
Average Humidity 68    
Maximum Humidity 93    
Minimum Humidity 42    
Precipitation  
Precipitation 0.00 in 0.10 in 3.95 in (1911)
Month to date precipitation 2.66 3.25  
Year to date precipitation 36.12 28.76  
Snow  
Snow 0.00 in 0.00 in 0.00 in (1894)
Month to date snowfall 0.0 0.0  
Since 1 June snowfall 0.0 0.0  
Since 1 July snowfall 0.0 0.0  
Snow Depth 0.00 in    
Sea Level Pressure  
Sea Level Pressure 30.19 in    
Wind  
Wind Speed 6 mph (NE)    
Max Wind Speed 17 mph    
Max Gust Speed 23 mph    
Visibility 10 miles    
Events      
T = Trace of Precipitation, MM = Missing Value Source: NWS Daily Summary

Daily Weather History Graph

Daily Weather History Graph

Search for Another Location

Airport or City:

Astronomy

Aug. 31, 2019 Rise Set
Actual Time 6:29 AM EDT 7:35 PM EDT
Civil Twilight 6:01 AM EDT 8:03 PM EDT
Nautical Twilight 5:28 AM EDT 8:36 PM EDT
Astronomical Twilight 4:54 AM EDT 9:10 PM EDT
Moon 7:42 AM EDT (8/31) 8:47 PM EDT (8/31)
Length of Visible Light 14h 01m
Length of Day
13h 06m
New Moon, 2% of the Moon is Illuminated
Aug 31
New Moon
Sep 5
First Quarter
Sep 14
Full
Sep 21
Last Quarter
Sep 28
New

Hourly Weather History & Observations

Time (EDT) Temp. Heat Index Dew Point Humidity Pressure Visibility Wind Dir Wind Speed Gust Speed Precip Events Conditions
12:51 AM 73.0 °F - 61.0 °F 66% 30.11 in 10.0 mi West 5.8 mph - N/A   Scattered Clouds
1:51 AM 70.0 °F - 63.0 °F 78% 30.12 in 10.0 mi Calm Calm - N/A   Clear
2:51 AM 69.1 °F - 63.0 °F 81% 30.11 in 10.0 mi Calm Calm - N/A   Clear
3:51 AM 69.1 °F - 63.0 °F 81% 30.12 in 10.0 mi Calm Calm - N/A   Clear
4:51 AM 66.9 °F - 64.0 °F 90% 30.13 in 10.0 mi North 3.5 mph - N/A   Clear
5:51 AM 66.9 °F - 64.0 °F 90% 30.14 in 10.0 mi North 5.8 mph - N/A   Clear
6:51 AM 68.0 °F - 64.0 °F 87% 30.17 in 10.0 mi North 6.9 mph - N/A   Clear
7:51 AM 72.0 °F - 63.0 °F 73% 30.19 in 10.0 mi North 8.1 mph - N/A   Clear
8:51 AM 75.9 °F - 61.0 °F 60% 30.20 in 10.0 mi NE 13.8 mph - N/A   Clear
9:51 AM 77.0 °F - 61.0 °F 58% 30.21 in 10.0 mi NE 13.8 mph - N/A   Scattered Clouds
10:51 AM 80.1 °F 80.9 °F 60.1 °F 50% 30.22 in 10.0 mi NNE 11.5 mph - N/A   Clear
11:51 AM 82.9 °F 83.3 °F 61.0 °F 47% 30.22 in 10.0 mi NNE 9.2 mph - N/A   Clear
12:51 PM 82.9 °F 83.2 °F 60.1 °F 46% 30.21 in 10.0 mi ENE 5.8 mph - 0.00 in   Clear
1:51 PM 86.0 °F 86.1 °F 61.0 °F 43% 30.21 in 10.0 mi North 5.8 mph - N/A   Partly Cloudy
2:51 PM 86.0 °F 86.3 °F 62.1 °F 44% 30.20 in 10.0 mi ENE 8.1 mph - N/A   Clear
3:51 PM 86.0 °F 86.1 °F 61.0 °F 43% 30.20 in 10.0 mi Variable 4.6 mph - N/A   Clear
4:51 PM 86.0 °F 86.1 °F 61.0 °F 43% 30.20 in 10.0 mi Calm Calm - N/A   Partly Cloudy
5:51 PM 84.0 °F 84.4 °F 61.0 °F 46% 30.20 in 10.0 mi NE 5.8 mph - N/A   Mostly Cloudy
6:51 PM 81.0 °F 81.6 °F 60.1 °F 49% 30.22 in 10.0 mi North 8.1 mph - N/A   Clear
7:51 PM 75.9 °F - 66.0 °F 71% 30.23 in 10.0 mi South 3.5 mph - N/A   Partly Cloudy
8:51 PM 75.0 °F - 66.9 °F 76% 30.23 in 10.0 mi SE 4.6 mph - N/A   Clear
9:51 PM 73.9 °F - 66.0 °F 76% 30.25 in 10.0 mi Calm Calm - N/A   Clear
10:51 PM 73.0 °F - 61.0 °F 66% 30.27 in 10.0 mi ESE 5.8 mph - N/A   Clear
11:51 PM 71.1 °F - 59.0 °F 66% 30.27 in 10.0 mi East 4.6 mph - N/A   Scattered Clouds